Powrót do katalogu

FENGYUN 1C DEB

AktywnySSO
NORAD 29929·DEBRIS·🇨🇳 China

Wystrzelony May 10, 1999 z Taiyuan Satellite Launch Center

Loading…

Następne Przeloty (najbliższe 24 godziny)

TLE

ŚwieżeSource: Space-Track

Epoka: Sep 14, 2026, 05:43 UTC

1 29929U 99025JB  26257.23872588  .00000871  00000-0  54948-3 0  9990
2 29929  98.6197 166.7847 0131020 124.0362  27.3194 14.02440441998160

Śledź FENGYUN 1C DEB w czasie rzeczywistym z AllMySat

Download on the App Store